sat.trackr.live / text

‹ back to catalog

STARLINK-36896

NORAD 68092 · 2026-042Z

PAYLOAD ACTIVE UNKNOWN

§ Identity

Operator
Country
US
Launch date
2026-03-04
Launch site
AFETR
Launch vehicle
Mass (kg)
RCS (m²)

Purposes: comms

External: N2YO · Heavens-Above · Gunter

§ Orbital elements

Epoch: 2026-05-25T02:35:05.565120Z

Period
93.85 min
Inclination
53.1591°
Eccentricity
0.0001403
Mean motion
15.34402004 rev/d
Perigee alt
461.7 km
Apogee alt
463.7 km
Semi-major
6,840.8 km
B*
5.9699e-4
RAAN
183.1630°
Arg perigee
87.7921°
Mean anomaly
272.3242°
Rev number
1,400

§ Raw data

STARLINK-368961 68092U 26042Z   26145.10770330  .00019849  00000+0  59699-3 0  99992 68092  53.1591 183.1630 0001403  87.7921 272.3242 15.34402004 14005

JSON: /api/v1/satellites/68092 · /tle

For live sub-satellite position, see the globe view (requires WebGL).

§ Visibility from observer

Set your observer location to see the next 7 days of passes ≥ 10°. The values pass through the URL so the page stays shareable.

No JS? Fill the form by hand. The geolocation button needs JavaScript.